Retour au catalogue

COSMOS 1656

ActifMilitaireLEO
NORAD 15755·PAYLOAD·🇷🇺 Russia

Lancé May 30, 1985 depuis Baikonur Cosmodrome

Loading…

Prochains Passages (prochaines 24 heures)

TLE

FraisSource: Space-Track

Époque: Sep 14, 2026, 22:24 UTC

1 15755U 85042A   26257.93381796  .00000089  00000-0  62774-4 0  9997
2 15755  71.1099  86.8581 0036057 207.9232 151.9961 14.21019190139917

Suivez COSMOS 1656 en temps réel avec AllMySat

Download on the App Store